TimeEST,TemperatureF,Dew PointF,Humidity,Sea Level PressureIn,VisibilityMPH,Wind Direction,Wind SpeedMPH,Gust SpeedMPH,PrecipitationIn,Events,Conditions,WindDirDegrees,DateUTC
12:53 AM,48.0,21.9,36,30.06,10.0,WNW,8.1,-,N/A,,Clear,290,2013-01-22 05:53:00
1:53 AM,46.0,21.9,39,30.07,10.0,West,9.2,-,N/A,,Clear,280,2013-01-22 06:53:00
2:53 AM,45.0,21.0,39,30.09,10.0,WNW,8.1,-,N/A,,Clear,290,2013-01-22 07:53:00
3:53 AM,43.0,19.9,40,30.09,10.0,West,8.1,-,N/A,,Clear,260,2013-01-22 08:53:00
4:53 AM,42.1,19.9,41,30.09,10.0,West,6.9,-,N/A,,Clear,270,2013-01-22 09:53:00
5:53 AM,39.9,19.9,45,30.12,10.0,West,4.6,-,N/A,,Clear,270,2013-01-22 10:53:00
6:53 AM,39.0,19.9,46,30.15,10.0,West,5.8,-,N/A,,Clear,280,2013-01-22 11:53:00
7:53 AM,37.9,19.0,47,30.19,10.0,WNW,8.1,-,N/A,,Clear,300,2013-01-22 12:53:00
8:53 AM,39.9,19.0,43,30.21,10.0,NW,11.5,-,N/A,,Clear,310,2013-01-22 13:53:00
9:53 AM,43.0,18.0,37,30.23,10.0,WNW,10.4,-,N/A,,Clear,300,2013-01-22 14:53:00
10:53 AM,45.0,18.0,34,30.24,10.0,NW,4.6,-,N/A,,Clear,310,2013-01-22 15:53:00
11:53 AM,46.9,18.0,32,30.22,10.0,Calm,Calm,-,N/A,,Clear,0,2013-01-22 16:53:00
12:53 PM,50.0,18.0,28,30.19,10.0,WNW,9.2,-,N/A,,Clear,290,2013-01-22 17:53:00
1:53 PM,51.1,19.0,28,30.18,10.0,Variable,6.9,-,N/A,,Clear,0,2013-01-22 18:53:00
2:53 PM,53.1,19.0,26,30.18,10.0,Variable,4.6,18.4,N/A,,Clear,0,2013-01-22 19:53:00
3:53 PM,53.1,18.0,25,30.19,10.0,West,11.5,18.4,N/A,,Clear,280,2013-01-22 20:53:00
4:53 PM,52.0,17.1,25,30.19,10.0,WNW,8.1,-,N/A,,Clear,290,2013-01-22 21:53:00
5:53 PM,48.0,19.0,32,30.22,10.0,WNW,4.6,-,N/A,,Clear,290,2013-01-22 22:53:00
6:53 PM,43.0,19.9,40,30.23,10.0,West,4.6,-,N/A,,Clear,280,2013-01-22 23:53:00
7:53 PM,42.1,19.9,41,30.24,10.0,WSW,3.5,-,N/A,,Clear,250,2013-01-23 00:53:00
8:53 PM,37.9,24.1,57,30.25,10.0,WSW,4.6,-,N/A,,Clear,250,2013-01-23 01:53:00
9:53 PM,37.0,24.1,59,30.27,10.0,West,4.6,-,N/A,,Clear,260,2013-01-23 02:53:00
10:53 PM,41.0,19.9,43,30.28,10.0,West,8.1,-,N/A,,Clear,280,2013-01-23 03:53:00
11:53 PM,39.9,19.0,43,30.28,10.0,WNW,3.5,-,N/A,,Clear,300,2013-01-23 04:53:00